This is the latest recevied weather packets stored in our database for station/object N0NB. If no packets are shown the sender has not sent any weather packets the latest 10 day(s).
| Time | Temp. | Humidity | Pressure | Rain* | Wind** | Luminosity | Snow |
|---|---|---|---|---|---|---|---|
| 1777574117 | 16.67° C | 49% | 1017.1 hPa | 0 mm | - | 894 W/m² | - |
| 1777573516 | 16.67° C | 48% | 1017.2 hPa | 0 mm | - | 913 W/m² | - |
| 1777572916 | 16.11° C | 51% | 1017.2 hPa | 0 mm | - | 880 W/m² | - |
| 1777572317 | 16.11° C | 49% | 1017.4 hPa | 0 mm | - | 811 W/m² | - |
| 1777571717 | 15.56° C | 52% | 1017.5 hPa | 0 mm | - | 917 W/m² | - |
| 1777571117 | 16.11° C | 51% | 1017.6 hPa | 0 mm | - | 841 W/m² | - |
| 1777570517 | 16.11° C | 57% | 1017.7 hPa | 0 mm | - | 859 W/m² | - |
| 1777569916 | 16.11° C | 55% | 1017.7 hPa | 0 mm | - | 872 W/m² | - |
| 1777569317 | 16.11° C | 55% | 1017.8 hPa | 0 mm | - | 834 W/m² | - |
| 1777568716 | 15.56° C | 52% | 1017.7 hPa | 0 mm | - | 802 W/m² | - |
| 1777568116 | 16.11° C | 51% | 1017.7 hPa | 0 mm | - | 701 W/m² | - |
| 1777567516 | 16.11° C | 53% | 1017.7 hPa | 0 mm | - | 702 W/m² | - |
| 1777566916 | 16.11° C | 54% | 1017.8 hPa | 0 mm | - | 699 W/m² | - |
| 1777566316 | 16.11° C | 55% | 1017.8 hPa | 0 mm | - | 614 W/m² | - |
| 1777565716 | 15.56° C | 53% | 1017.8 hPa | 0 mm | - | 742 W/m² | - |
| 1777565116 | 15.56° C | 53% | 1017.8 hPa | 0 mm | - | 655 W/m² | - |
| 1777564516 | 15° C | 54% | 1017.7 hPa | 0 mm | - | 620 W/m² | - |
| 1777563916 | 15° C | 55% | 1017.7 hPa | 0 mm | - | 619 W/m² | - |
| 1777563316 | 15° C | 60% | 1017.7 hPa | 0 mm | - | 540 W/m² | - |
| 1777562716 | 14.44° C | 62% | 1017.6 hPa | 0 mm | - | 484 W/m² | - |
| 1777562116 | 14.44° C | 60% | 1017.7 hPa | 0 mm | - | 510 W/m² | - |
| 1777561516 | 14.44° C | 61% | 1017.7 hPa | 0 mm | - | 464 W/m² | - |
| 1777560916 | 13.89° C | 65% | 1017.6 hPa | 0 mm | - | 504 W/m² | - |
| 1777560316 | 13.33° C | 67% | 1017.7 hPa | 0 mm | - | 436 W/m² | - |
| 1777559716 | 13.33° C | 68% | 1017.7 hPa | 0 mm | - | 375 W/m² | - |
* Rain latest hour (hover to see other rain measurements)
** Current wind speed in m/s (hover to see current wind gust speed)